Weather History for Poplar Bluff, MO

Change the Weather History Date:

Monday, March 11, 2013

  Actual Average Record
Temperature  
Mean Temperature 40 °F -  
Max Temperature 46 °F 56 °F 80 °F (1955)
Min Temperature 33 °F 35 °F 16 °F (1948)
Degree Days  
Heating Degree Days 25    
Moisture  
Dew Point 31 °F    
Average Humidity 69    
Maximum Humidity 85    
Minimum Humidity 58    
Precipitation  
Precipitation 0.00 in - - ()
Sea Level Pressure  
Sea Level Pressure 29.88 in    
Wind  
Wind Speed 10 mph (West)    
Max Wind Speed 18 mph    
Max Gust Speed 24 mph    
Visibility 10 miles    
Events      
Averages and records for this station are not official NWS values.
T = Trace of Precipitation, MM = Missing Value Source: NWS Daily Summary

Daily Weather History Graph

Daily Weather History Graph

Search for Another Location

Airport:

Trip Planner

Search our weather history database for the weather conditions in past years. The results will help you decide how hot, cold, wet, or windy it might be!

Date:

Astronomy

Mar. 11, 2013 Rise Set
Actual Time 7:17 AM CDT 7:05 PM CDT
Civil Twilight 6:51 AM CDT 7:31 PM CDT
Nautical Twilight 6:21 AM CDT 8:01 PM CDT
Astronomical Twilight 5:51 AM CDT 8:31 PM CDT
Moon 6:52 AM CDT (3/11) 7:16 PM CDT (3/11)
Length of Visible Light 12h 39m
Length of Day
11h 47m
Waning Crescent, 0% of the Moon is Illuminated
Mar 11
Waning Crescent
Mar 11
New
Mar 19
First Quarter
Mar 27
Full
Apr 2
Last Quarter

Hourly Weather History & Observations

Time (CDT) Temp. Windchill Dew Point Humidity Pressure Visibility Wind Dir Wind Speed Gust Speed Precip Events Conditions
12:53 AM 46.9 °F - 39.9 °F 77% 29.80 in 10.0 mi WSW 8.1 mph - N/A   Mostly Cloudy
1:53 AM 45.0 °F 40.6 °F 37.9 °F 76% 29.81 in 10.0 mi SW 8.1 mph - N/A   Mostly Cloudy
2:04 AM 44.6 °F 39.7 °F 37.4 °F 76% 29.80 in 10.0 mi WSW 9.2 mph - N/A   Mostly Cloudy
2:53 AM 45.0 °F 41.2 °F 37.9 °F 76% 29.78 in 10.0 mi WSW 6.9 mph - N/A   Overcast
3:53 AM 43.0 °F 38.2 °F 35.1 °F 74% 29.79 in 10.0 mi West 8.1 mph - N/A   Mostly Cloudy
4:53 AM 42.1 °F 35.2 °F 34.0 °F 73% 29.80 in 10.0 mi West 12.7 mph - N/A   Overcast
5:53 AM 41.0 °F 32.2 °F 33.1 °F 73% 29.80 in 10.0 mi WNW 18.4 mph 24.2 mph N/A   Overcast
6:07 AM 39.2 °F 31.2 °F 32.0 °F 75% 29.80 in 10.0 mi West 13.8 mph 21.9 mph N/A   Overcast
6:14 AM 39.2 °F 31.6 °F 32.0 °F 75% 29.80 in 10.0 mi West 12.7 mph 21.9 mph N/A   Overcast
6:53 AM 39.0 °F 32.8 °F 30.9 °F 73% 29.83 in 10.0 mi West 9.2 mph - N/A   Overcast
7:53 AM 37.9 °F 30.9 °F 30.9 °F 76% 29.84 in 10.0 mi West 10.4 mph 18.4 mph N/A   Overcast
8:53 AM 37.9 °F 30.0 °F 28.9 °F 70% 29.86 in 10.0 mi West 12.7 mph - N/A   Overcast
9:53 AM 37.9 °F 30.0 °F 28.9 °F 70% 29.89 in 10.0 mi West 12.7 mph 20.7 mph N/A   Overcast
10:53 AM 37.9 °F 29.2 °F 28.0 °F 68% 29.88 in 10.0 mi West 15.0 mph 21.9 mph N/A   Overcast
11:53 AM 39.9 °F 31.4 °F 28.9 °F 65% 29.89 in 10.0 mi WNW 16.1 mph - N/A   Overcast
12:53 PM 39.9 °F 32.5 °F 28.9 °F 65% 29.91 in 10.0 mi West 12.7 mph 20.7 mph N/A   Overcast
1:43 PM 41.0 °F 33.5 °F 28.4 °F 61% 29.88 in 10.0 mi West 13.8 mph - N/A   Mostly Cloudy
1:53 PM 42.1 °F 34.2 °F 28.9 °F 60% 29.89 in 10.0 mi West 16.1 mph 21.9 mph N/A   Overcast
2:53 PM 42.1 °F 36.6 °F 28.9 °F 60% 29.88 in 10.0 mi WNW 9.2 mph - N/A   Overcast
3:53 PM 43.0 °F 36.4 °F 28.9 °F 58% 29.90 in 10.0 mi WNW 12.7 mph - N/A   Overcast
4:53 PM 42.1 °F 34.9 °F 28.0 °F 58% 29.92 in 10.0 mi WNW 13.8 mph - N/A   Overcast
5:53 PM 41.0 °F 35.2 °F 28.0 °F 60% 29.94 in 10.0 mi WNW 9.2 mph - N/A   Overcast
6:53 PM 41.0 °F 36.4 °F 28.0 °F 60% 29.96 in 10.0 mi WNW 6.9 mph - N/A   Overcast
7:53 PM 41.0 °F 35.8 °F 28.0 °F 60% 29.98 in 10.0 mi West 8.1 mph - N/A   Overcast
8:53 PM 37.9 °F 35.5 °F 27.0 °F 65% 30.00 in 10.0 mi NW 3.5 mph - N/A   Partly Cloudy
9:53 PM 35.1 °F - 28.9 °F 78% 30.02 in 10.0 mi Calm Calm - N/A   Clear
10:53 PM 34.0 °F - 27.0 °F 75% 30.04 in 10.0 mi Calm Calm - N/A   Clear
11:53 PM 33.1 °F - 28.9 °F 85% 30.04 in 10.0 mi Calm Calm - N/A   Clear